When you browse on this site, cookies collect data to enhance your experience and personalize the content and advertising you see.
Visit our Privacy Policy to learn more. By continuing to use the site, you agree to this use of cookies and data.
  • In Slovakia
  • List of Countries
  • For 7 days
  • Water Temperature
  • Weather Map
  • Weather Widgets
  • user-avatar
    Login

    Hourly Weather Newcastle

    Today, 8 December, Sunday

    Time Temperature Precipitation Wind Pressure Humidity
    00:00 +8°C° 0.2 mm 11 mps 734 mmHg 87%
    01:00 +8°C° 0.3 mm 10 mps 733 mmHg 84%
    02:00 +10°C° 0.3 mm 9 mps 733 mmHg 81%
    03:00 +10°C° 0.3 mm 8 mps 732 mmHg 78%
    04:00 +8°C° 0 mm 7 mps 733 mmHg 79%
    05:00 +6°C° 0 mm 7 mps 734 mmHg 80%
    06:00 +4°C° 0 mm 6 mps 734 mmHg 81%
    07:00 +4°C° 0 mm 6 mps 734 mmHg 80%
    08:00 +4°C° 0 mm 7 mps 734 mmHg 80%
    09:00 +4°C° 0 mm 7 mps 734 mmHg 79%
    10:00 +4°C° 0 mm 8 mps 734 mmHg 76%
    11:00 +5°C° 0 mm 9 mps 733 mmHg 73%
    12:00 +5°C° 0 mm 10 mps 733 mmHg 70%
    13:00 +5°C° 0.1 mm 9 mps 732 mmHg 70%
    14:00 +4°C° 0.1 mm 8 mps 732 mmHg 70%
    15:00 +4°C° 0.1 mm 8 mps 731 mmHg 71%
    16:00 +3°C° 0 mm 7 mps 730 mmHg 72%
    17:00 +3°C° 0 mm 7 mps 729 mmHg 74%
    18:00 +3°C° 0 mm 7 mps 729 mmHg 76%
    19:00 +2°C° 0.8 mm 8 mps 727 mmHg 79%
    20:00 +2°C° 0.8 mm 10 mps 726 mmHg 82%
    21:00 +3°C° 0.8 mm 11 mps 725 mmHg 85%
    22:00 +3°C° 0.1 mm 9 mps 725 mmHg 86%
    23:00 +2°C° 0.1 mm 8 mps 725 mmHg 86%

    Tomorrow, 9 December, Monday

    Time Temperature Precipitation Wind Pressure Humidity
    00:00 +3°C° 0.1 mm 6 mps 725 mmHg 87%
    01:00 +3°C° 0.4 mm 9 mps 727 mmHg 85%
    02:00 +3°C° 0.4 mm 11 mps 728 mmHg 83%
    03:00 +3°C° 0.4 mm 14 mps 729 mmHg 82%
    04:00 +3°C° 0.1 mm 14 mps 731 mmHg 77%
    05:00 +3°C° 0.1 mm 14 mps 733 mmHg 72%
    06:00 +3°C° 0.1 mm 14 mps 735 mmHg 67%
    07:00 +3°C° 0 mm 13 mps 738 mmHg 67%
    08:00 +2°C° 0 mm 11 mps 740 mmHg 67%
    09:00 +2°C° 0 mm 9 mps 742 mmHg 67%
    10:00 +2°C° 0 mm 9 mps 744 mmHg 65%
    11:00 +2°C° 0 mm 9 mps 745 mmHg 63%
    12:00 +2°C° 0 mm 8 mps 747 mmHg 61%
    13:00 +3°C° 0 mm 7 mps 748 mmHg 62%
    14:00 +3°C° 0 mm 6 mps 749 mmHg 64%
    15:00 +2°C° 0 mm 5 mps 750 mmHg 66%
    16:00 +3°C° 0 mm 4 mps 750 mmHg 69%
    17:00 +2°C° 0 mm 3 mps 751 mmHg 72%
    18:00 +3°C° 0 mm 2 mps 752 mmHg 75%
    19:00 +2°C° 0 mm 2 mps 752 mmHg 78%
    20:00 +2°C° 0 mm 2 mps 752 mmHg 81%
    21:00 +2°C° 0 mm 2 mps 753 mmHg 84%
    22:00 +1°C° 0 mm 3 mps 752 mmHg 86%
    23:00 +1°C° 0 mm 3 mps 752 mmHg 88%

    Day after tomorrow, 10 December, Tuesday

    Time Temperature Precipitation Wind Pressure Humidity
    00:00 0°C° 0 mm 4 mps 752 mmHg 89%
    01:00 0°C° 0 mm 4 mps 751 mmHg 89%
    02:00 +1°C° 0 mm 5 mps 750 mmHg 89%
    03:00 +1°C° 0 mm 6 mps 749 mmHg 89%
    04:00 +2°C° 0 mm 7 mps 748 mmHg 89%
    05:00 +3°C° 0 mm 7 mps 747 mmHg 88%
    06:00 +4°C° 0 mm 8 mps 746 mmHg 87%
    07:00 +3°C° 0.3 mm 9 mps 745 mmHg 87%
    08:00 +5°C° 0.3 mm 10 mps 743 mmHg 87%
    09:00 +6°C° 0.3 mm 11 mps 742 mmHg 87%
    10:00 +6°C° 0.3 mm 11 mps 741 mmHg 87%
    11:00 +7°C° 0.3 mm 11 mps 740 mmHg 88%
    12:00 +8°C° 0.3 mm 12 mps 739 mmHg 88%
    13:00 +8°C° 0.1 mm 12 mps 737 mmHg 87%
    14:00 +9°C° 0.1 mm 11 mps 736 mmHg 86%
    15:00 +9°C° 0.1 mm 11 mps 734 mmHg 85%
    16:00 +9°C° 1 mm 11 mps 734 mmHg 86%
    17:00 +9°C° 1 mm 10 mps 733 mmHg 87%
    18:00 +9°C° 1 mm 10 mps 733 mmHg 89%
    19:00 +7°C° 0.9 mm 9 mps 734 mmHg 87%
    20:00 +6°C° 0.9 mm 9 mps 735 mmHg 85%
    21:00 +4°C° 0.9 mm 8 mps 736 mmHg 83%
    22:00 +4°C° 0 mm 7 mps 737 mmHg 82%
    23:00 +3°C° 0 mm 7 mps 738 mmHg 81%

    11 December, Wednesday

    Time Temperature Precipitation Wind Pressure Humidity
    00:00 +2°C° 0 mm 6 mps 738 mmHg 80%
    01:00 +2°C° 0 mm 6 mps 739 mmHg 80%
    02:00 +2°C° 0 mm 5 mps 739 mmHg 80%
    03:00 +1°C° 0 mm 5 mps 740 mmHg 80%
    04:00 +1°C° 0 mm 5 mps 740 mmHg 80%
    05:00 +1°C° 0 mm 5 mps 740 mmHg 81%
    06:00 +1°C° 0 mm 5 mps 740 mmHg 81%
    07:00 +1°C° 0.3 mm 5 mps 739 mmHg 84%
    08:00 +1°C° 0.3 mm 6 mps 739 mmHg 87%
    09:00 0°C° 0.3 mm 7 mps 739 mmHg 90%
    10:00 +2°C° 0 mm 6 mps 739 mmHg 86%
    11:00 +2°C° 0 mm 5 mps 738 mmHg 81%
    12:00 +3°C° 0 mm 5 mps 738 mmHg 77%
    13:00 +3°C° 0.4 mm 4 mps 737 mmHg 81%
    14:00 +3°C° 0.4 mm 4 mps 737 mmHg 85%
    15:00 +1°C° 0.4 mm 4 mps 737 mmHg 88%
    16:00 +1°C° 0 mm 4 mps 737 mmHg 88%
    17:00 +1°C° 0 mm 4 mps 738 mmHg 87%
    18:00 0°C° 0 mm 4 mps 738 mmHg 86%
    19:00 0°C° 0 mm 4 mps 738 mmHg 85%
    20:00 0°C° 0 mm 4 mps 739 mmHg 85%
    21:00 -1°C° 0 mm 4 mps 739 mmHg 84%
    22:00 -1°C° 0 mm 4 mps 739 mmHg 85%
    23:00 -1°C° 0 mm 4 mps 740 mmHg 85%

    12 December, Thursday

    Time Temperature Precipitation Wind Pressure Humidity
    00:00 -1°C° 0 mm 4 mps 740 mmHg 85%
    01:00 -1°C° 0 mm 4 mps 740 mmHg 86%
    02:00 -1°C° 0 mm 4 mps 740 mmHg 86%
    03:00 -1°C° 0 mm 4 mps 740 mmHg 86%
    04:00 -1°C° 0.1 mm 4 mps 739 mmHg 89%
    05:00 0°C° 0.1 mm 5 mps 738 mmHg 92%
    06:00 +1°C° 0.1 mm 5 mps 738 mmHg 95%
    07:00 +2°C° 0.5 mm 6 mps 737 mmHg 94%
    08:00 +3°C° 0.5 mm 7 mps 735 mmHg 93%
    09:00 +4°C° 0.5 mm 8 mps 734 mmHg 92%
    10:00 +4°C° 0.6 mm 8 mps 733 mmHg 92%
    11:00 +5°C° 0.6 mm 8 mps 731 mmHg 92%
    12:00 +5°C° 0.6 mm 8 mps 730 mmHg 91%
    13:00 +6°C° 0.4 mm 8 mps 729 mmHg 90%
    14:00 +6°C° 0.4 mm 7 mps 728 mmHg 88%
    15:00 +7°C° 0.4 mm 6 mps 728 mmHg 86%
    16:00 +7°C° 0 mm 6 mps 727 mmHg 88%
    17:00 +7°C° 0 mm 6 mps 727 mmHg 89%
    18:00 +5°C° 0 mm 6 mps 726 mmHg 90%
    19:00 +6°C° 1.2 mm 7 mps 725 mmHg 88%
    20:00 +7°C° 1.2 mm 8 mps 724 mmHg 87%
    21:00 +7°C° 1.2 mm 10 mps 723 mmHg 86%
    22:00 +6°C° 0.5 mm 10 mps 723 mmHg 82%
    23:00 +5°C° 0.5 mm 10 mps 724 mmHg 78%

    13 December, Friday

    Time Temperature Precipitation Wind Pressure Humidity
    00:00 +3°C° 0.5 mm 10 mps 724 mmHg 74%
    01:00 +2°C° 0.1 mm 10 mps 725 mmHg 74%
    02:00 +2°C° 0.1 mm 10 mps 725 mmHg 73%
    03:00 +2°C° 0.1 mm 10 mps 726 mmHg 73%
    04:00 +1°C° 0.1 mm 10 mps 727 mmHg 74%
    05:00 +1°C° 0.1 mm 9 mps 727 mmHg 76%
    06:00 +1°C° 0.1 mm 9 mps 728 mmHg 77%
    07:00 +1°C° 0.1 mm 9 mps 728 mmHg 77%
    08:00 +1°C° 0.1 mm 9 mps 729 mmHg 77%
    09:00 +1°C° 0.1 mm 9 mps 729 mmHg 76%
    10:00 +2°C° 0.1 mm 9 mps 730 mmHg 75%
    11:00 +2°C° 0.1 mm 10 mps 730 mmHg 73%
    12:00 +3°C° 0.1 mm 10 mps 730 mmHg 72%
    13:00 +2°C° 0 mm 9 mps 730 mmHg 72%
    14:00 +2°C° 0 mm 8 mps 731 mmHg 73%
    15:00 +3°C° 0 mm 7 mps 731 mmHg 74%
    16:00 +3°C° 0 mm 6 mps 731 mmHg 76%
    17:00 +2°C° 0 mm 5 mps 731 mmHg 79%
    18:00 +3°C° 0 mm 4 mps 732 mmHg 81%
    19:00 +3°C° 0.1 mm 4 mps 731 mmHg 85%
    20:00 +3°C° 0.1 mm 4 mps 731 mmHg 88%
    21:00 +3°C° 0.1 mm 3 mps 730 mmHg 92%
    22:00 +4°C° 0.7 mm 4 mps 729 mmHg 93%
    23:00 +5°C° 0.7 mm 4 mps 729 mmHg 95%
    Show more